Regional Weather Roundup
Issued by NWS

Home | Current Version | Previous Version | Graphics & Text | Print | Product List | Glossary On
Versions: 1 2 3 4 5 6 7 8 9 10 11 12 13 14 15 16 17 18 19 20 21 22 23 24 25 26 27 28 29 30 31 32 33 34 35 36 37 38 39 40 41 42 43 44 45 46 47 48 49 50
000
ASUS43 KMPX 162101
RWRMN
WEATHER ROUNDUP FOR MINNESOTA
NATIONAL WEATHER SERVICE TWIN CITIES/CHANHASSEN MN
400 PM CDT TUE SEP 16 2014


NOTE: "FAIR" INDICATES FEW OR NO CLOUDS BELOW 12,000 FEET WITH NO
SIGNIFICANT WEATHER AND/OR OBSTRUCTIONS TO VISIBILITY. N/A MEANS
CURRENT SKY AND/OR WEATHER CONDITIONS ARE NOT AVAILABLE.

MNZ060>063-068>070-162200-
   Twin Cities Metro

CITY           SKY/WX    TMP DP  RH WIND       PRES   REMARKS
TWIN CITIES    MOSUNNY   66  42  41 SW10      30.06F
ST PAUL        SUNNY     66  42  41 CALM      30.07F
CRYSTAL        SUNNY     67  42  40 S6G16     30.06F
BLAINE         MOSUNNY   68  45  42 SW8       30.06F
LAKEVILLE      SUNNY     64  45  48 S5        30.07F
EDEN PRAIRIE   SUNNY     67  43  41 SW9       30.06F
SOUTH ST PAUL  SUNNY     67  41  38 SW8       30.07F
LAKE ELMO      FAIR      66  45  45 W6        30.08F
$$
MNZ001>005-007-008-013>017-022>024-027-028-162200-
   Northwest Minnesota

CITY           SKY/WX    TMP DP  RH WIND       PRES   REMARKS
BEMIDJI        SUNNY     69  41  36 W12       29.99F
HALLOCK        MOSUNNY   72  41  33 NE3       29.93F
ROSEAU         MOSUNNY   63  48  59 NE5       29.97F
WARROAD        PTSUNNY   57  48  72 CALM      29.98F
THIEF RVR FALL SUNNY     72  41  33 W8        29.96F
CROOKSTON      SUNNY     72  41  33 SW12      29.96F
FOSSTON        SUNNY     72  45  37 W3G10     29.99F
DETROIT LAKES  SUNNY     66  37  34 S7        30.02F
MOORHEAD       SUNNY     72  28  20 S5        29.99F
PARK RAPIDS    SUNNY     68  36  30 S12G21    30.01F
MAHNOMEN       FAIR      69  39  32 SW8       29.99F
$$
MNZ006-009>011-018-025>026-162200-
   North Central Minnesota

CITY           SKY/WX    TMP DP  RH WIND       PRES   REMARKS
BAUDETTE       CLOUDY    58  47  66 CALM      29.98F
FLAG ISLAND    MOSUNNY   61  52  72 S6        29.96S
INTL FALLS     CLOUDY    59  49  69 W5        29.98F
WASKISH        MOSUNNY   64  48  55 CALM      29.98S
BIG FORK       SUNNY     70  39  32 W7        29.98F
LONGVILLE      SUNNY     70  43  37 SW7       30.01S
GRAND RAPIDS   MOSUNNY   66  39  37 W10       30.01S
CRANE LAKE     CLOUDY    55  46  71 CALM      30.00S
ORR            CLOUDY    63  45  51 CALM      29.96S
COOK           MOSUNNY   64  45  48 W9G16     29.98S
WALKER         FAIR      68  40  35 W8G16     30.00F
$$
MNZ012-019>021-037-162200-
   Northeast Minnesota

CITY           SKY/WX    TMP DP  RH WIND       PRES   REMARKS
DULUTH         MOSUNNY   69  41  36 W17       30.00F
ELY            PTSUNNY   63  45  51 W9        29.97S
HIBBING        MOSUNNY   67  43  41 W7        29.99F
EVELETH        SUNNY     64  43  45 SW15      30.00S
DULUTH HARBOR  SUNNY     70  43  37 SW17      30.00F
TWO HARBORS    MOSUNNY   68  46  45 W10G16    29.97S
SILVER BAY     SUNNY     66  48  52 SW8       29.95S
GRAND MARAIS     N/A     53  49  86 SW7       29.95S
G MARAIS ARPRT MOSUNNY   61  43  51 W7        29.98S
$$
MNZ029>031-032-039>041-046>048-054>057-064-162200-
   West Central Minnesota

CITY           SKY/WX    TMP DP  RH WIND       PRES   REMARKS
FERGUS FALLS   SUNNY     70  34  26 S3        30.00F
WHEATON        MOSUNNY   68  45  42 SE9       30.00F
MORRIS         MOSUNNY   72  43  35 S6        30.00F
ALEXANDRIA     MOSUNNY   66  43  43 S8        30.04F
ELBOW LAKE     FAIR      68  43  40 S7        30.01F
GLENWOOD       PTSUNNY   66  45  45 S6        30.04F
APPLETON       MOSUNNY   72  43  35 S10       30.00F
BENSON         CLOUDY    70  45  40 S8        30.02F
ORTONVILLE     CLOUDY    70  46  43 S7        29.99F
MADISON        PTSUNNY   72  46  40 S9        30.01F
WILLMAR        FAIR      68  41  37 SW6       30.05F
$$
MNZ033>034-036-042>043-049>051-058-059-162200-
   Central Minnesota

CITY           SKY/WX    TMP DP  RH WIND       PRES   REMARKS
ST CLOUD       SUNNY     69  41  36 SW10      30.05F
SAUK CENTRE    FAIR      66  43  42 S6        30.04F
PAYNESVILLE    SUNNY     64  41  42 S7        30.05F
AITKIN         SUNNY     70  41  35 SW6       30.01F
PINE RIVER     SUNNY     68  43  40 S7        30.04F
BRAINERD       SUNNY     65  38  36 W8        30.03F
STAPLES        SUNNY     66  37  34 S7        30.03F
LONG PRAIRIE   FAIR      64  41  42 S9        30.05S
LITTLE FALLS   SUNNY     66  36  32 S6        30.05S
LITCHFIELD     SUNNY     68  45  42 CALM      30.05F
BUFFALO        SUNNY     66  42  41 SW5       30.06F
MAPLE LAKE     SUNNY     67  46  47 S6        30.07S
$$
MNZ037-044-045-052-053-162200-
   East Central Minnesota

CITY           SKY/WX    TMP DP  RH WIND       PRES   REMARKS
PRINCETON      SUNNY     68  43  40 SW5       30.05F
MORA           SUNNY     64  41  42 SW8       30.07S
CAMBRIDGE      SUNNY     68  46  45 S7        30.04F
RUSH CITY      MOSUNNY   66  43  42 CALM      30.06F
MOOSE LAKE     SUNNY     68  39  34 SW13      30.01F
HINCKLEY       FAIR      66  45  45 S9        30.05F
CLOQUET        MOSUNNY   66  37  34 SW10G17   30.02S
MCGREGOR       SUNNY     66  41  39 SW9G17    30.03S
$$
MNZ071>073-080-081-089-090-097-098-162200-
   Southwest Minnesota

CITY           SKY/WX    TMP DP  RH WIND       PRES   REMARKS
MONTEVIDEO     SUNNY     72  45  37 SW6       30.03F
GRANITE FALLS  PTSUNNY   69  44  41 SE7       30.04F
CANBY          CLOUDY    68  46  46 S7        30.02F
MARSHALL       PTSUNNY   70  45  40 S13       30.02F
REDWOOD FALLS  SUNNY     69  44  40 S8        30.04F
OLIVIA         SUNNY     70  45  40 SW5       30.04S
PIPESTONE      CLOUDY    66  46  48 S13       30.03F
WINDOM         SUNNY     68  45  42 S9        30.06F
WORTHINGTON    SUNNY     66  45  45 S14       30.07F
JACKSON        SUNNY     66  43  42 S9        30.08F
TRACY          MOSUNNY   69  47  45 SW12      30.04F
SLAYTON        PTSUNNY   66  42  42 S6G16     30.06S
$$
MNZ065>067-074>077-082>085-091>093-162200-
   South Central Minnesota

CITY           SKY/WX    TMP DP  RH WIND       PRES   REMARKS
MANKATO        SUNNY     66  41  39 SW7       30.07F
NEW ULM        SUNNY     66  45  45 S6        30.05F
ST JAMES       SUNNY     68  41  37 S6        30.07F
FAIRMONT       SUNNY     66  41  39 SW8G16    30.07F
GLENCOE        SUNNY     68  39  35 SW6       30.06F
FARIBAULT      SUNNY     70  36  28 SW7       30.08F
OWATONNA       SUNNY     66  41  39 SW7       30.08F
WASECA         SUNNY     64  36  34 S9        30.09F
ALBERT LEA     SUNNY     66  43  42 S6        30.08F
$$
MNZ078>079-086>088-094>096-162200-
   Southeast Minnesota

CITY           SKY/WX    TMP DP  RH WIND       PRES   REMARKS
ROCHESTER      MOSUNNY   64  42  44 SW5       30.11F
RED WING       SUNNY     70  37  30 W8        30.07F
STANTON        SUNNY     67  43  41 SW8       30.07F
DODGE CENTER   SUNNY     64  43  45 SW10      30.09F
WINONA         SUNNY     66  43  42 SW5       30.09F
AUSTIN         SUNNY     64  43  45 SW6       30.09F
PRESTON        SUNNY     64  48  57 W6        30.11F
$$
ABBREVIATIONS USED IN REMARKS
   TC - TEMPERATURES IN CELSIUS
  WCI - WIND CHILL INDEX
   HX - HEAT INDEX
  VSB - VISIBILITY
$$



USA.gov is the U.S. government's official web portal to all federal, state and local government web resources and services.